Location: Stara Lesna
(49.1528°N, 20.2911°E)
Time: 13:32:41
(UTC+02:00)

Cosmos 2026 Rocket - Pass Details

Date: 21 September 2019
Orbit: 940 x 1001 km, 82.9° (Epoch: 13 October)

Event Time Altitude Azimuth Distance (km) Brightness Sun altitude
Exits shadow 04:06:46 15° 179° (S) 2,393 5.8 -22.1°
Maximum altitude 04:12:06 77° 96° (E) 1,025 4.1 -21.3°
Drops below altitude 10° 04:18:29 10° 12° (NNE) 2,781 6.9 -20.4°
Sets 04:21:02 0° 11° (N) 3,737 7.6 -20.0°
